Location: Arrington
(35.8681°N, 86.7092°W)
Time: 02:08:29
(UTC+00:00)

ATLAS 2AS CENTAUR R/B - Pass Details

Date: 29 February 2020
Orbit: 929 x 1283 km, 63.7° (Epoch: 05 April)

Event Time Altitude Azimuth Distance (km) Brightness Sun altitude
Rises 09:47:47 0° 335° (NNW) 4,169 5.7 -31.0°
Reaches altitude 10° 09:51:05 10° 345° (NNW) 3,155 5.1 -30.3°
Maximum altitude 09:57:34 30° 45° (NE) 1,925 4.4 -29.0°
Drops below altitude 10° 10:03:36 10° 104° (ESE) 2,924 5.8 -27.8°
Sets 10:06:31 0° 115° (ESE) 3,820 6.4 -27.3°
